Temperature
18 18 18 18 18 18 18 18 18 18 18 18 18 18 18 18 18 18 18 18 18 18 18 17 17 17 17 17 17 17 17 17 17 16 16 16 16 16 16 16 16 16 16
18 18 18 18 18 18 18 18 18 18 18 18 18 18 18 18 18 18 18 17 17 17 17 17 17 17 17 17 17 17 17 17 16 16 16 16 16 16 16 16 16 16 16
18 18 18 18 18 18 18 18 18 18 18 17 18 17 18 18 18 17 17 17 17 17 17 17 17 17 17 17 17 17 17 17 16 16 16 16 16 16 16 16 16 16 16
18 18 18 18 18 18 18 18 18 18 18 18 18 17 17 17 17 17 17 17 17 17 17 17 17 17 17 17 17 17 17 17 16 16 16 16 16 16 16 16 16 16 16
18 18 18 18 18 18 18 18 18 18 18 18 17 17 17 17 17 17 17 17 17 17 17 17 17 17 17 17 17 17 17 17 16 16 16 16 16 16 16 16 16 16 16
18 18 18 18 18 18 18 18 18 18 18 18 17 17 17 17 17 17 17 17 17 17 17 17 17 17 17 17 17 17 16 16 16 16 16 16 16 16 16 16 16 16 15
18 18 18 18 18 18 18 18 18 18 17 17 17 17 17 17 17 17 17 17 17 17 17 17 17 17 17 17 17 16 16 16 16 16 16 16 16 16 16 16 16 15 15
18 18 18 18 18 18 18 18 18 18 17 17 17 17 17 17 17 17 17 17 17 17 17 17 17 17 17 17 17 17 16 16 16 16 16 16 16 16 16 16 16 15 15
18 18 18 18 18 18 18 18 18 18 18 18 17 17 17 17 17 17 17 17 17 17 17 17 17 17 17 17 17 17 16 16 16 16 16 16 16 16 16 16 16 16 15
18 18 18 18 18 18 18 18 18 18 18 18 17 17 17 17 17 17 17 17 17 17 17 17 17 17 17 17 17 17 16 16 16 16 16 16 16 16 16 16 16 16 15
18 18 18 18 18 18 18 18 18 18 18 18 17 17 17 17 17 17 17 17 17 17 17 17 17 17 17 17 17 17 16 16 16 16 16 16 16 16 16 16 16 15 15
18 18 18 18 18 18 18 18 18 18 18 17 17 17 17 17 17 17 17 17 17 17 17 17 17 17 17 17 17 17 16 16 16 16 16 16 16 16 16 16 15 15 15
18 18 18 18 18 18 18 18 18 17 17 17 17 17 17 17 17 17 17 17 17 17 17 17 17 17 17 17 17 17 16 16 16 16 16 16 16 16 16 15 15 15 15
18 18 18 18 18 18 18 18 18 17 17 17 17 17 17 17 17 17 17 17 17 17 17 17 17 17 17 17 17 16 16 16 16 16 16 16 16 16 16 15 15 15 15
18 18 18 18 18 18 17 17 17 17 17 17 17 17 17 17 17 17 17 17 17 16 16 17 17 17 17 16 16 16 16 16 16 16 16 16 16 16 15 15 15 15 15
18 18 18 18 18 18 17 17 17 17 17 17 17 17 17 17 17 17 17 17 17 17 16 17 17 17 17 16 16 16 16 16 16 16 16 16 16 15 15 15 15 15 15
18 18 18 18 18 18 17 17 17 17 17 17 17 17 17 17 17 17 17 17 16 16 16 17 16 16 16 16 16 16 16 16 16 16 16 16 16 15 15 15 15 15 14
18 18 18 18 18 18 17 17 17 17 17 17 17 16 17 17 17 17 16 16 16 16 16 16 16 16 16 16 16 16 16 16 16 15 15 15 15 15 15 15 15 15 14
18 18 18 18 18 17 17 17 17 17 17 17 16 16 16 16 16 16 16 16 16 16 16 16 16 16 16 16 16 15 15 16 15 15 15 15 15 15 15 15 15 15 14
18 17 17 17 17 17 17 17 17 17 17 16 16 16 16 16 16 16 16 16 16 16 16 16 16 16 15 15 15 15 15 15 15 15 15 15 15 15 15 14 14 14 14
18 17 17 17 17 17 17 17 17 17 17 16 16 16 16 16 16 16 16 16 16 16 15 15 15 15 15 15 15 15 15 15 15 15 15 15 15 15 15 14 14 14 14
17 17 17 17 17 17 17 17 17 16 16 16 16 16 16 16 16 16 16 15 15 15 15 15 15 15 15 15 15 14 14 14 14 14 14 14 14 14 14 14 14 14 14
17 17 17 17 17 17 16 16 16 16 16 16 16 16 15 15 15 15 15 15 15 15 15 15 15 15 15 15 14 14 14 14 14 14 14 14 14 14 14 14 14 14 14
17 17 17 17 17 16 16 16 16 16 16 16 15 15 15 15 15 15 15 15 15 15 15 14 14 14 14 14 14 14 14 14 14 14 13 13 14 14 14 14 14 14 14
17 17 17 16 16 16 16 16 16 16 15 15 15 15 15 15 15 15 15 15 15 15 15 14 14 14 14 14 14 14 14 13 13 14 13 13 13 13 14 14 14 14 14
16 16 16 16 16 16 16 16 15 15 15 15 15 15 15 15 15 14 14 14 14 14 14 14 14 14 14 14 14 14 13 13 13 13 13 13 13 13 13 13 13 13 13
Wind_Speed
5 4 4 4 3 4 4 4 3 3 3 3 3 5 6 6 8 10 11 15 16 15 15 15 14 14 13 12 11 10 10 9 9 10 9 9 9 9 9 8 8 8 8
6 5 4 3 3 4 4 4 4 4 3 3 4 5 6 6 8 10 11 13 14 15 15 15 14 13 12 12 11 11 10 10 10 9 9 9 9 9 9 9 9 9 9
7 6 5 3 3 4 4 4 4 4 3 3 3 4 5 5 7 9 10 11 12 14 14 14 13 13 12 12 12 11 10 10 10 10 10 9 9 9 9 9 8 8 9
8 6 4 4 4 4 4 4 3 4 3 3 3 2 3 3 5 7 9 9 10 10 12 14 13 12 12 12 11 11 10 10 10 11 10 10 9 10 10 10 10 9 9
7 6 4 3 4 4 3 3 3 4 3 3 3 2 2 2 3 5 6 8 9 10 10 11 13 13 13 12 12 11 11 11 11 11 11 10 10 10 10 10 10 10 10
6 5 4 3 4 4 3 3 3 3 3 3 2 2 1 2 2 3 5 6 8 9 9 9 10 11 13 12 12 12 12 12 11 11 11 11 11 10 10 10 10 9 9
5 5 4 3 3 3 3 4 3 3 2 2 3 2 2 1 1 2 3 4 6 8 9 10 9 9 9 12 12 12 12 12 12 12 12 12 11 11 11 11 10 10 10
5 5 4 3 3 3 3 3 3 3 1 2 3 2 1 3 2 1 2 3 4 5 6 9 9 10 10 9 11 13 12 11 11 12 12 11 11 11 11 10 10 9 9
5 4 4 4 3 4 3 4 4 4 3 1 2 3 3 3 1 2 1 2 3 3 4 6 9 11 11 11 11 12 13 13 13 12 12 11 10 10 10 10 10 10 10
4 4 4 4 3 3 3 4 4 3 4 2 1 1 2 3 3 1 2 1 2 4 5 5 7 9 11 11 11 12 13 14 13 13 12 12 12 12 11 11 11 10 11
3 4 4 4 3 3 3 3 2 3 3 3 3 2 1 1 2 3 2 2 1 2 4 4 5 7 9 11 11 12 14 14 14 14 14 13 13 13 12 12 11 11 10
2 2 3 3 3 2 3 3 3 3 3 3 3 2 3 2 3 2 3 2 2 3 3 3 4 6 8 11 12 13 14 14 15 15 14 14 14 13 13 13 12 12 11
2 3 3 3 2 3 3 3 3 2 3 3 3 3 3 3 3 3 3 2 2 2 2 2 4 6 7 9 11 13 13 14 15 15 15 15 14 14 14 13 13 12 11
4 4 3 3 3 3 3 3 2 2 2 2 3 3 2 3 2 3 3 3 2 2 2 3 2 4 7 9 11 13 11 14 15 15 15 14 14 14 14 13 12 12 11
4 4 4 4 3 3 3 3 2 2 2 3 3 3 2 2 2 2 3 3 4 3 4 4 3 3 6 8 10 10 10 12 14 15 15 14 13 13 13 13 12 12 11
4 4 4 4 4 3 3 4 2 2 3 2 2 2 2 2 2 2 2 2 3 4 4 4 4 3 3 5 7 8 9 10 12 13 13 14 14 14 14 14 14 13 12
4 4 4 4 4 4 3 3 3 3 3 3 2 2 3 2 2 2 2 2 2 3 4 4 2 2 2 3 3 5 7 7 8 11 12 13 14 13 14 14 14 14 13
4 5 5 4 4 4 4 4 4 4 4 3 3 3 4 3 3 3 2 3 3 3 4 4 3 2 3 3 3 3 4 6 7 9 12 13 13 13 13 13 14 15 14
5 5 4 5 5 5 4 4 5 4 4 4 4 4 4 3 3 3 3 3 3 3 3 3 3 2 2 1 1 2 3 3 6 7 10 12 13 14 14 14 14 15 15
6 5 5 5 5 5 5 5 4 4 4 4 4 4 4 4 5 4 4 4 3 2 2 2 3 2 2 2 1 2 3 3 4 4 6 9 11 12 13 14 14 15 15
6 5 5 4 4 4 4 5 5 5 5 4 4 4 4 5 5 5 4 3 3 3 2 2 3 2 2 2 3 3 4 3 4 3 3 4 5 6 9 12 14 14 15
6 5 5 5 4 4 5 6 6 4 4 5 5 4 5 5 5 6 5 5 4 4 4 4 3 4 5 4 3 3 3 2 4 3 3 5 4 5 7 9 13 15 16
6 5 5 5 5 5 5 5 6 5 4 5 5 4 4 4 4 4 4 4 5 6 6 6 5 6 5 5 4 4 4 5 5 4 3 5 4 6 7 10 13 15 15
5 5 5 5 5 5 5 5 5 5 4 4 5 5 5 4 4 3 3 3 4 5 6 5 6 6 5 5 5 5 5 5 4 3 4 5 4 6 6 8 13 16 16
4 5 4 5 5 5 5 6 6 4 4 4 4 4 4 4 4 4 3 3 4 5 6 6 6 6 7 6 4 2 2 2 4 5 4 4 4 4 4 6 10 14 16
4 4 4 4 5 5 5 6 7 4 4 4 3 3 3 4 4 4 4 4 5 6 4 3 4 5 5 6 6 5 5 4 3 4 4 5 3 2 3 4 5 7 10
Wind_Direction
140 139 144 154 163 160 157 157 160 153 144 151 146 145 146 153 161 163 169 170 171 174 177 177 177 179 180 183 187 191 194 194 194 198 202 204 205 204 205 208 208 210 212
154 149 145 153 170 173 168 163 157 147 145 136 127 131 138 146 155 164 169 173 177 180 183 184 185 187 189 191 195 197 198 200 200 200 203 207 209 205 208 209 211 214 215
157 156 148 149 168 169 148 136 130 131 126 120 116 125 137 145 156 168 175 177 180 187 189 190 191 193 193 196 200 201 203 203 205 207 210 209 207 209 210 211 214 216 213
153 149 143 147 158 146 134 126 120 115 112 109 111 124 133 147 163 171 173 177 181 186 192 195 195 195 197 202 202 201 202 204 207 207 206 208 211 212 213 214 216 217 215
151 145 143 150 147 131 124 135 125 125 125 120 124 130 136 154 169 176 174 181 186 189 191 195 199 201 204 206 206 207 206 207 209 210 211 213 215 215 215 215 215 215 218
152 146 142 147 141 126 122 127 130 128 133 139 129 112 143 188 184 189 190 184 187 192 196 196 203 208 210 210 212 214 214 214 216 216 215 216 217 218 217 217 217 215 219
150 143 140 142 141 140 152 146 131 131 137 130 100 58 5 310 214 203 195 188 192 197 199 200 202 205 208 214 217 219 221 223 222 221 219 220 220 219 219 220 217 218 221
161 156 146 154 155 149 150 151 140 138 160 142 132 115 41 354 335 258 193 186 192 193 201 206 206 207 209 211 216 222 223 223 223 222 221 221 223 223 220 218 218 221 222
166 161 157 159 158 158 167 177 168 160 165 183 157 146 152 207 274 320 227 195 189 190 204 208 208 211 212 213 215 219 220 221 223 223 220 218 218 216 213 216 219 221 223
168 165 160 162 157 161 173 192 181 169 156 179 217 189 175 166 168 253 319 270 219 213 216 214 209 210 210 209 214 216 218 220 221 222 219 217 213 213 214 216 221 224 226
180 176 172 170 168 173 179 180 169 168 162 173 185 183 177 178 164 164 229 277 286 241 225 219 212 210 209 209 213 216 217 219 220 221 219 217 216 216 216 218 222 224 227
185 190 177 169 171 170 178 183 184 177 179 175 180 176 173 177 191 178 201 224 242 256 244 229 218 213 211 210 216 218 219 221 222 219 216 216 218 219 221 222 224 227 230
192 206 186 175 172 177 176 175 181 192 191 186 192 195 193 199 183 169 171 210 235 261 259 245 227 217 219 213 218 221 222 221 221 219 218 218 219 221 224 225 225 227 230
200 194 180 175 177 183 184 174 186 203 205 208 210 199 199 213 185 176 178 179 221 276 268 259 251 222 222 218 222 221 223 221 218 218 218 219 221 223 224 224 223 225 228
198 189 186 183 184 185 181 177 192 201 202 215 218 212 213 229 211 200 185 177 179 226 258 254 246 233 218 218 222 219 221 225 221 221 220 221 221 222 222 222 222 223 226
192 182 187 186 190 195 188 186 194 201 201 226 218 214 235 248 243 225 208 201 188 192 234 247 241 249 222 221 223 215 222 226 225 223 221 221 223 224 223 223 223 224 224
178 177 185 187 194 199 197 192 204 197 205 228 237 226 241 239 244 244 223 212 209 191 229 263 252 262 230 224 220 219 225 221 226 226 225 223 223 223 224 226 225 225 226
187 186 187 188 198 202 200 199 211 210 208 222 236 236 250 249 248 248 233 231 227 214 211 250 263 245 234 226 216 219 227 225 226 231 228 227 227 228 228 229 230 229 228
192 191 191 195 203 203 199 202 205 208 210 218 224 226 241 243 253 258 248 246 244 237 212 221 246 240 244 240 224 248 241 236 232 237 232 230 232 234 233 233 232 231 230
195 198 199 201 200 200 201 202 204 209 216 226 227 225 229 227 237 246 247 247 237 235 229 225 242 246 242 240 199 235 260 253 246 241 231 232 235 235 237 237 234 232 232
207 204 200 206 206 206 209 204 211 214 219 232 239 236 234 229 232 232 239 240 229 226 229 229 241 244 244 233 232 221 237 254 257 235 230 235 230 234 238 238 237 234 234
210 204 204 209 214 226 221 206 202 215 220 227 239 245 248 243 247 246 245 236 218 218 224 226 233 239 246 238 233 225 225 234 259 234 213 246 221 238 239 235 236 234 233
208 210 212 209 218 232 225 211 204 209 218 225 227 234 251 256 246 252 260 258 250 239 220 215 227 239 235 227 214 227 229 230 240 225 200 243 231 241 245 242 236 235 236
205 211 210 211 217 233 221 209 204 208 220 232 227 220 227 248 250 238 252 266 268 262 244 230 229 239 236 223 208 214 224 239 262 241 193 231 237 241 247 242 240 237 237
204 208 208 208 216 237 226 214 203 215 226 240 241 232 222 227 240 221 220 251 273 279 273 249 238 243 247 241 224 198 215 232 266 259 212 215 238 247 251 247 245 240 238
207 207 213 214 215 230 228 217 204 207 221 239 250 249 235 231 242 218 210 227 257 266 275 288 278 279 267 258 239 214 211 226 247 255 222 206 229 215 262 255 241 238 238
Height
1530 1532 1532 1534 1535 1535 1536 1539 1541 1543 1545 1547 1549 1550 1551 1553 1554 1555 1556 1558 1559 1561 1562 1563 1564 1566 1566 1567 1568 1569 1570 1571 1572 1572 1573 1574 1574 1575 1576 1577 1577 1578 1579
1532 1533 1534 1535 1536 1537 1538 1540 1542 1544 1546 1548 1549 1550 1552 1553 1554 1555 1556 1558 1560 1561 1562 1563 1564 1565 1566 1567 1567 1568 1569 1569 1570 1571 1572 1572 1573 1573 1574 1575 1576 1576 1577
1534 1535 1536 1537 1538 1539 1540 1542 1544 1546 1547 1548 1550 1551 1552 1553 1555 1556 1557 1558 1559 1560 1561 1562 1563 1564 1565 1566 1566 1567 1568 1568 1569 1570 1570 1571 1571 1572 1573 1573 1574 1575 1575
1535 1536 1538 1539 1540 1541 1542 1543 1545 1547 1548 1549 1550 1551 1552 1554 1555 1556 1557 1558 1559 1560 1561 1561 1562 1563 1564 1565 1565 1565 1566 1567 1568 1568 1569 1569 1570 1571 1571 1572 1572 1573 1573
1537 1538 1539 1540 1541 1542 1544 1545 1546 1548 1549 1550 1551 1552 1552 1553 1554 1555 1556 1557 1558 1559 1560 1561 1562 1562 1563 1563 1564 1564 1565 1565 1566 1567 1567 1568 1568 1569 1569 1570 1570 1571 1572
1538 1539 1540 1541 1542 1544 1545 1546 1547 1548 1549 1550 1551 1552 1552 1553 1553 1554 1555 1556 1557 1558 1559 1560 1560 1561 1561 1562 1562 1563 1564 1564 1565 1565 1565 1566 1566 1567 1567 1568 1568 1569 1569
1539 1540 1541 1542 1543 1544 1545 1547 1548 1549 1550 1550 1551 1552 1552 1553 1553 1554 1554 1555 1556 1557 1558 1558 1559 1560 1560 1561 1561 1562 1562 1562 1563 1563 1564 1564 1564 1565 1565 1566 1566 1567 1567
1540 1541 1542 1542 1544 1545 1546 1547 1548 1548 1549 1550 1551 1551 1552 1554 1553 1553 1553 1554 1555 1555 1556 1557 1558 1558 1559 1559 1560 1560 1560 1561 1561 1561 1562 1562 1562 1562 1563 1564 1564 1564 1564
1540 1541 1542 1543 1544 1545 1545 1546 1547 1548 1549 1550 1551 1552 1552 1552 1552 1553 1552 1553 1553 1554 1554 1555 1556 1556 1557 1557 1558 1558 1559 1559 1559 1559 1559 1560 1560 1560 1561 1561 1561 1562 1562
1540 1541 1542 1543 1544 1545 1545 1546 1547 1548 1548 1549 1550 1550 1551 1551 1551 1550 1551 1552 1552 1553 1553 1554 1554 1554 1555 1555 1556 1556 1556 1557 1557 1557 1557 1557 1557 1558 1558 1559 1559 1559 1559
1540 1541 1542 1542 1543 1544 1545 1546 1546 1547 1548 1548 1548 1549 1549 1550 1550 1550 1549 1550 1551 1551 1551 1552 1552 1552 1552 1553 1553 1553 1554 1554 1554 1555 1555 1555 1555 1555 1556 1556 1556 1556 1556
1539 1540 1541 1542 1542 1543 1544 1544 1545 1546 1547 1547 1547 1548 1548 1548 1548 1548 1548 1548 1548 1549 1550 1550 1550 1550 1550 1550 1550 1550 1551 1551 1552 1552 1552 1553 1553 1553 1553 1553 1553 1553 1554
1538 1539 1540 1540 1541 1542 1542 1543 1544 1544 1545 1545 1546 1546 1547 1547 1547 1547 1547 1546 1547 1547 1547 1547 1547 1547 1547 1547 1547 1548 1548 1548 1548 1549 1549 1549 1550 1550 1550 1550 1550 1550 1550
1538 1538 1539 1539 1540 1540 1541 1541 1542 1543 1543 1543 1544 1544 1545 1545 1545 1545 1545 1545 1545 1544 1544 1544 1544 1544 1544 1544 1544 1544 1545 1545 1545 1545 1546 1546 1546 1546 1546 1546 1546 1547 1547
1537 1537 1537 1538 1538 1539 1539 1540 1540 1540 1541 1541 1541 1542 1542 1543 1543 1543 1543 1544 1544 1542 1541 1542 1541 1541 1541 1541 1541 1541 1541 1542 1542 1542 1542 1542 1542 1542 1543 1543 1543 1543 1543
1535 1535 1536 1536 1537 1537 1537 1538 1538 1539 1539 1539 1539 1540 1540 1540 1540 1541 1541 1541 1541 1541 1539 1539 1539 1539 1538 1538 1538 1538 1538 1538 1538 1538 1538 1539 1539 1539 1539 1539 1539 1539 1539
1533 1533 1534 1534 1535 1535 1536 1536 1536 1536 1537 1537 1537 1537 1537 1538 1538 1538 1538 1538 1538 1538 1537 1536 1536 1536 1535 1535 1535 1535 1535 1534 1535 1535 1535 1535 1535 1535 1535 1535 1536 1536 1536
1530 1531 1532 1532 1533 1533 1534 1534 1534 1534 1534 1534 1535 1535 1535 1535 1535 1535 1535 1535 1535 1534 1534 1532 1532 1532 1532 1531 1531 1531 1531 1531 1531 1531 1531 1531 1531 1531 1532 1532 1532 1532 1532
1528 1529 1530 1530 1530 1531 1531 1531 1532 1532 1532 1532 1532 1532 1532 1532 1532 1532 1532 1532 1531 1531 1531 1530 1529 1529 1528 1528 1527 1527 1527 1526 1526 1526 1527 1527 1527 1527 1528 1528 1528 1528 1528
1525 1526 1526 1527 1528 1528 1528 1529 1529 1529 1530 1529 1529 1530 1530 1530 1529 1529 1529 1528 1528 1528 1527 1527 1526 1526 1525 1525 1524 1523 1522 1522 1522 1523 1523 1523 1523 1523 1523 1524 1524 1524 1524
1522 1523 1524 1524 1525 1525 1526 1526 1526 1526 1526 1526 1527 1527 1527 1527 1526 1526 1526 1525 1525 1525 1524 1523 1523 1522 1521 1521 1520 1520 1519 1518 1518 1519 1519 1519 1519 1519 1519 1519 1519 1520 1520
1519 1520 1520 1521 1521 1522 1522 1523 1523 1523 1523 1523 1523 1523 1523 1523 1523 1523 1522 1522 1522 1521 1520 1520 1519 1519 1518 1518 1517 1517 1516 1515 1514 1515 1515 1514 1515 1514 1515 1515 1515 1515 1516
1515 1516 1517 1517 1518 1518 1519 1519 1519 1519 1519 1520 1520 1520 1520 1519 1519 1519 1518 1518 1518 1517 1517 1517 1516 1515 1514 1514 1514 1513 1512 1512 1510 1511 1511 1509 1509 1509 1510 1510 1510 1511 1511
1512 1512 1513 1513 1514 1514 1515 1516 1516 1516 1516 1515 1516 1516 1515 1515 1515 1515 1515 1514 1513 1513 1513 1513 1512 1511 1511 1510 1510 1510 1509 1508 1507 1506 1506 1504 1504 1504 1504 1504 1505 1505 1505
1508 1509 1509 1510 1510 1510 1511 1511 1512 1512 1511 1511 1511 1511 1511 1511 1511 1511 1511 1510 1509 1509 1509 1509 1508 1508 1507 1506 1505 1505 1504 1503 1501 1500 1501 1500 1498 1498 1498 1498 1499 1499 1500
1504 1505 1505 1506 1506 1506 1507 1507 1507 1507 1507 1507 1507 1507 1507 1507 1507 1507 1506 1506 1505 1505 1505 1504 1504 1503 1502 1502 1501 1501 1500 1499 1497 1495 1495 1495 1494 1494 1493 1492 1493 1493 1494